Weather History for Fort Leonard Wood, MO

Change the Weather History Date:

Sunday, April 28, 2013

  Actual Average Record
Temperature  
Mean Temperature 56 °F -  
Max Temperature 65 °F 68 °F 82 °F (2001)
Min Temperature 48 °F 51 °F 36 °F (2008)
Degree Days  
Heating Degree Days 8    
Growing Degree Days 6 (Base 50)    
Moisture  
Dew Point 50 °F    
Average Humidity 90    
Maximum Humidity 100    
Minimum Humidity 58    
Precipitation  
Precipitation 0.00 in - - ()
Sea Level Pressure  
Sea Level Pressure 29.97 in    
Wind  
Wind Speed 5 mph (West)    
Max Wind Speed 8 mph    
Max Gust Speed -    
Visibility 9 miles    
Events      
Averages and records for this station are not official NWS values.
T = Trace of Precipitation, MM = Missing Value Source: NWS Daily Summary

Daily Weather History Graph

Daily Weather History Graph

Search for Another Location

Airport:

Trip Planner

Search our weather history database for the weather conditions in past years. The results will help you decide how hot, cold, wet, or windy it might be!

Date:

Astronomy

Apr. 28, 2013 Rise Set
Actual Time 6:16 AM CDT 7:56 PM CDT
Civil Twilight 5:48 AM CDT 8:24 PM CDT
Nautical Twilight 5:14 AM CDT 8:58 PM CDT
Astronomical Twilight 4:38 AM CDT 9:34 PM CDT
Moon 11:25 PM CDT (4/28) 8:35 AM CDT (4/28)
Length of Visible Light 14h 36m
Length of Day
13h 40m
Waning Gibbous, 88% of the Moon is Illuminated
Apr 28
Waning Gibbous
May 2
Last Quarter
May 9
New
May 17
First Quarter
May 24
Full

Hourly Weather History & Observations

Time (CDT) Temp. Dew Point Humidity Pressure Visibility Wind Dir Wind Speed Gust Speed Precip Events Conditions
12:58 AM 49.5 °F 49.5 °F 100% 29.98 in 6.0 mi NW 3.5 mph - N/A   Overcast
1:58 AM 49.5 °F 49.5 °F 100% 29.97 in 8.0 mi WNW 4.6 mph - N/A   Overcast
2:28 AM 50.0 °F 50.0 °F 100% 29.96 in 10.0 mi West 4.6 mph - N/A   Overcast
2:58 AM 49.3 °F 49.3 °F 100% 29.96 in 10.0 mi WNW 5.8 mph - N/A   Overcast
3:18 AM 50.0 °F 50.0 °F 100% 29.95 in 10.0 mi NW 6.9 mph - N/A   Overcast
3:58 AM 49.3 °F 49.3 °F 100% 29.96 in 8.0 mi Variable 4.6 mph - N/A   Overcast
4:33 AM 50.0 °F 50.0 °F 100% 29.95 in 4.0 mi Variable 5.8 mph - N/A   Light Drizzle
4:42 AM 50.0 °F 50.0 °F 100% 29.96 in 4.0 mi Variable 4.6 mph - N/A   Overcast
4:58 AM 48.9 °F 48.9 °F 100% 29.96 in 4.0 mi Variable 4.6 mph - 0.00 in   Overcast
5:58 AM 48.7 °F 48.7 °F 100% 29.97 in 10.0 mi WNW 8.1 mph - N/A   Overcast
6:58 AM 48.2 °F 48.2 °F 100% 29.99 in 10.0 mi WNW 4.6 mph - N/A   Overcast
7:58 AM 49.5 °F 49.5 °F 100% 30.00 in 10.0 mi WNW 4.6 mph - N/A   Overcast
8:53 AM 50.0 °F 50.0 °F 100% 30.02 in 10.0 mi WSW 2.3 mph - N/A   Overcast
8:58 AM 50.4 °F 50.4 °F 100% 30.04 in 10.0 mi West 3.5 mph - N/A   Overcast
9:43 AM 51.8 °F 51.8 °F 100% 30.02 in 10.0 mi West 5.8 mph - N/A   Overcast
9:58 AM 50.9 °F 50.7 °F 99% 30.03 in 10.0 mi Variable 5.8 mph - N/A   Overcast
10:03 AM 51.8 °F 50.0 °F 94% 30.02 in 10.0 mi Variable 4.6 mph - N/A   Overcast
10:13 AM 51.8 °F 50.0 °F 94% 30.02 in 10.0 mi WNW 5.8 mph - N/A   Overcast
10:58 AM 51.6 °F 49.5 °F 92% 30.02 in 10.0 mi West 6.9 mph - N/A   Overcast
11:58 AM 52.5 °F 49.3 °F 89% 30.02 in 10.0 mi Variable 6.9 mph - N/A   Overcast
12:58 PM 53.4 °F 49.3 °F 86% 30.01 in 10.0 mi Variable 5.8 mph - N/A   Overcast
1:18 PM 53.6 °F 50.0 °F 88% 29.99 in 10.0 mi NW 8.1 mph - N/A   Overcast
1:23 PM 53.6 °F 50.0 °F 88% 29.99 in 10.0 mi Variable 3.5 mph - N/A   Overcast
1:28 PM 55.4 °F 50.0 °F 82% 29.99 in 10.0 mi NW 4.6 mph - N/A   Overcast
1:58 PM 55.9 °F 50.2 °F 81% 29.99 in 10.0 mi Variable 5.8 mph - N/A   Overcast
2:58 PM 58.6 °F 50.4 °F 74% 29.97 in 10.0 mi Variable 4.6 mph - N/A   Overcast
3:28 PM 60.8 °F 50.0 °F 68% 29.95 in 10.0 mi Variable 3.5 mph - N/A   Scattered Clouds
3:58 PM 61.5 °F 51.8 °F 70% 29.95 in 10.0 mi Variable 2.3 mph - N/A   Clear
4:58 PM 63.7 °F 50.9 °F 63% 29.92 in 10.0 mi Variable 2.3 mph - N/A   Clear
5:58 PM 65.3 °F 51.1 °F 60% 29.91 in 10.0 mi South 4.6 mph - N/A   Clear
6:58 PM 65.3 °F 50.0 °F 58% 29.90 in 10.0 mi SSE 5.8 mph - N/A   Clear
7:58 PM 60.1 °F 52.9 °F 77% 29.91 in 10.0 mi SE 8.1 mph - N/A   Clear
8:58 PM 57.0 °F 53.2 °F 87% 29.91 in 10.0 mi SE 8.1 mph - N/A   Clear
9:58 PM 54.1 °F 52.5 °F 94% 29.92 in 10.0 mi SE 6.9 mph - N/A   Clear
10:58 PM 53.1 °F 52.0 °F 96% 29.92 in 10.0 mi SSE 5.8 mph - N/A   Clear
11:58 PM 51.6 °F 51.3 °F 99% 29.92 in 10.0 mi SSE 6.9 mph - N/A   Clear